Location: Clanezzo
(45.7500°N, 9.6000°E)
Time: 23:05:49
(UTC+00:00)

STARS - Pass Details

Date: 06 July 2022
Orbit: 620 x 637 km, 98.2° (Epoch: 07 August)

Event Time Altitude Azimuth Distance (km) Brightness Sun altitude
Rises 21:04:08 0° 28° (NNE) 2,924 ? -14.4°
Reaches altitude 10° 21:06:55 10° 46° (NE) 2,008 ? -14.6°
Maximum altitude 21:10:02 19° 92° (E) 1,492 ? -14.9°
Enters shadow 21:10:55 18° 108° (ESE) 1,537 ? -15.0°
